Time,TemperatureF,DewpointF,PressureIn,WindDirection,WindDirectionDegrees,WindSpeedMPH,WindSpeedGustMPH,Humidity,HourlyPrecipIn,Conditions,Clouds,dailyrainin,SoftwareType,DateUTC
2013-01-16 00:23:00,34.0,26.0,-100.00,North,5,1.0,2.0,74,-99.99,,,-99.99,,2013-01-16 05:23:00,
2013-01-16 00:32:00,34.0,26.0,-100.00,NNE,25,2.0,3.0,73,-99.99,,,-99.99,,2013-01-16 05:32:00,
2013-01-16 00:42:00,35.0,26.0,-100.00,NNE,20,1.0,2.0,71,-99.99,,,-99.99,,2013-01-16 05:42:00,
2013-01-16 00:53:00,35.0,26.0,-100.00,NNE,20,1.0,2.0,70,-99.99,,,-99.99,,2013-01-16 05:53:00,
2013-01-16 01:03:00,35.0,26.0,-100.00,NNE,25,1.0,3.0,70,-99.99,,,-99.99,,2013-01-16 06:03:00,
2013-01-16 01:12:00,35.0,26.0,-100.00,NE,40,1.0,3.0,72,-99.99,,,-99.99,,2013-01-16 06:12:00,
2013-01-16 01:22:00,35.0,26.0,-100.00,NW,320,1.0,2.0,72,-99.99,,,-99.99,,2013-01-16 06:22:00,
2013-01-16 01:33:00,34.0,26.0,-100.00,NW,325,1.0,3.0,71,-99.99,,,-99.99,,2013-01-16 06:33:00,
2013-01-16 01:43:00,34.0,26.0,-100.00,North,5,0.0,2.0,72,-99.99,,,-99.99,,2013-01-16 06:43:00,
2013-01-16 02:33:00,34.0,27.0,-100.00,NW,315,1.0,2.0,74,-99.99,,,-99.99,,2013-01-16 07:33:00,
2013-01-16 02:42:00,34.0,27.0,-100.00,WNW,290,1.0,3.0,74,-99.99,,,-99.99,,2013-01-16 07:42:00,
2013-01-16 02:52:00,34.0,26.0,-100.00,West,270,0.0,2.0,74,-99.99,,,-99.99,,2013-01-16 07:52:00,
2013-01-16 03:03:00,34.0,27.0,-100.00,North,0,1.0,2.0,75,-99.99,,,-99.99,,2013-01-16 08:03:00,
2013-01-16 04:12:00,33.0,27.0,-100.00,NNE,15,2.0,5.0,77,-99.99,,,-99.99,,2013-01-16 09:12:00,
2013-01-16 04:22:00,33.0,28.0,-100.00,NNE,15,1.0,2.0,81,-99.99,,,-99.99,,2013-01-16 09:22:00,
2013-01-16 04:32:00,33.0,28.0,-100.00,NNE,20,2.0,3.0,84,-99.99,,,-99.99,,2013-01-16 09:32:00,
2013-01-16 04:43:00,32.0,28.0,-100.00,NNE,30,2.0,5.0,86,-99.99,,,-99.99,,2013-01-16 09:43:00,
2013-01-16 04:52:00,32.0,29.0,-100.00,NE,45,2.0,6.0,88,-99.99,,,-99.99,,2013-01-16 09:52:00,
2013-01-16 05:03:00,32.0,29.0,-100.00,NNE,15,1.0,3.0,90,-99.99,,,-99.99,,2013-01-16 10:03:00,
2013-01-16 05:12:00,32.0,29.0,-100.00,North,0,2.0,5.0,90,-99.99,,,-99.99,,2013-01-16 10:12:00,
2013-01-16 05:22:00,32.0,29.0,-100.00,North,0,2.0,5.0,90,-99.99,,,-99.99,,2013-01-16 10:22:00,
2013-01-16 05:32:00,32.0,30.0,-100.00,West,265,1.0,3.0,92,-99.99,,,-99.99,,2013-01-16 10:32:00,
2013-01-16 05:43:00,32.0,30.0,-100.00,North,350,2.0,5.0,92,-99.99,,,-99.99,,2013-01-16 10:43:00,
2013-01-16 05:52:00,32.0,30.0,-100.00,North,350,2.0,5.0,92,-99.99,,,-99.99,,2013-01-16 10:52:00,
2013-01-16 06:02:00,31.0,29.0,-100.00,North,0,0.0,5.0,92,-99.99,,,-99.99,,2013-01-16 11:02:00,
2013-01-16 06:12:00,31.0,30.0,-100.00,North,0,0.0,14.0,93,-99.99,,,-99.99,,2013-01-16 11:12:00,
2013-01-16 06:23:00,31.0,30.0,-100.00,North,0,0.0,17.0,93,-99.99,,,-99.99,,2013-01-16 11:23:00,
2013-01-16 06:33:00,32.0,30.0,-100.00,North,0,0.0,21.0,93,-99.99,,,-99.99,,2013-01-16 11:33:00,
2013-01-16 06:43:00,32.0,30.0,-100.00,North,0,0.0,0.0,94,-99.99,,,-99.99,,2013-01-16 11:43:00,
2013-01-16 07:33:00,32.0,30.0,-100.00,North,0,0.0,28.0,94,-99.99,,,-99.99,,2013-01-16 12:33:00,
2013-01-16 07:43:00,32.0,31.0,-100.00,North,0,0.0,0.0,94,-99.99,,,-99.99,,2013-01-16 12:43:00,
2013-01-16 07:53:00,32.0,30.0,-100.00,North,0,0.0,0.0,94,-99.99,,,-99.99,,2013-01-16 12:53:00,
2013-01-16 08:03:00,32.0,30.0,-100.00,North,0,0.0,0.0,94,-99.99,,,-99.99,,2013-01-16 13:03:00,
2013-01-16 08:13:00,32.0,30.0,-100.00,North,0,0.0,0.0,94,-99.99,,,-99.99,,2013-01-16 13:13:00,
2013-01-16 08:23:00,32.0,30.0,-100.00,North,0,0.0,0.0,94,-99.99,,,-99.99,,2013-01-16 13:23:00,
2013-01-16 08:33:00,32.0,30.0,-100.00,North,0,0.0,0.0,94,-99.99,,,-99.99,,2013-01-16 13:33:00,
2013-01-16 08:43:00,32.0,30.0,-100.00,North,0,0.0,0.0,94,-99.99,,,-99.99,,2013-01-16 13:43:00,
2013-01-16 08:52:00,32.0,30.0,-100.00,North,0,0.0,0.0,94,-99.99,,,-99.99,,2013-01-16 13:52:00,
2013-01-16 09:03:00,32.0,30.0,-100.00,North,0,0.0,0.0,94,-99.99,,,-99.99,,2013-01-16 14:03:00,
2013-01-16 09:12:00,32.0,31.0,-100.00,North,0,0.0,0.0,94,-99.99,,,-99.99,,2013-01-16 14:12:00,
2013-01-16 09:23:00,32.0,31.0,-100.00,North,0,0.0,0.0,94,-99.99,,,-99.99,,2013-01-16 14:23:00,
2013-01-16 10:00:00,33.0,32.0,-100.00,North,0,0.0,0.0,94,-99.99,,,-99.99,,2013-01-16 15:00:00,
2013-01-16 10:30:00,33.0,32.0,-100.00,North,0,0.0,0.0,94,-99.99,,,-99.99,,2013-01-16 15:30:00,
2013-01-16 10:33:00,33.0,32.0,-100.00,North,0,0.0,0.0,94,-99.99,,,-99.99,,2013-01-16 15:33:00,
2013-01-16 10:43:00,33.0,32.0,-100.00,North,0,0.0,0.0,94,-99.99,,,-99.99,,2013-01-16 15:43:00,
2013-01-16 10:52:00,33.0,32.0,-100.00,North,0,0.0,0.0,94,-99.99,,,-99.99,,2013-01-16 15:52:00,
2013-01-16 11:12:00,33.0,32.0,-100.00,North,0,0.0,0.0,94,-99.99,,,-99.99,,2013-01-16 16:12:00,
2013-01-16 11:23:00,33.0,32.0,-100.00,North,0,0.0,0.0,94,-99.99,,,-99.99,,2013-01-16 16:23:00,
2013-01-16 12:12:00,34.0,33.0,-100.00,North,0,0.0,0.0,95,-99.99,,,-99.99,,2013-01-16 17:12:00,
2013-01-16 12:23:00,34.0,33.0,-100.00,North,0,0.0,0.0,95,-99.99,,,-99.99,,2013-01-16 17:23:00,
2013-01-16 12:33:00,34.0,33.0,-100.00,North,0,0.0,0.0,95,-99.99,,,-99.99,,2013-01-16 17:33:00,
2013-01-16 12:44:00,34.0,33.0,-100.00,North,0,0.0,0.0,96,-99.99,,,-99.99,,2013-01-16 17:44:00,
2013-01-16 12:53:00,34.0,33.0,-100.00,North,0,0.0,0.0,95,-99.99,,,-99.99,,2013-01-16 17:53:00,
2013-01-16 13:03:00,33.0,32.0,-100.00,North,0,0.0,0.0,96,-99.99,,,-99.99,,2013-01-16 18:03:00,
2013-01-16 13:13:00,33.0,32.0,-100.00,North,0,0.0,0.0,96,-99.99,,,-99.99,,2013-01-16 18:13:00,
2013-01-16 14:13:00,33.0,32.0,-100.00,North,0,0.0,0.0,96,-99.99,,,-99.99,,2013-01-16 19:13:00,
2013-01-16 14:23:00,33.0,32.0,-100.00,North,0,0.0,0.0,96,-99.99,,,-99.99,,2013-01-16 19:23:00,
2013-01-16 14:33:00,33.0,33.0,-100.00,North,0,0.0,0.0,97,-99.99,,,-99.99,,2013-01-16 19:33:00,
2013-01-16 14:43:00,33.0,33.0,-100.00,North,0,1.0,6.0,97,-99.99,,,-99.99,,2013-01-16 19:43:00,
2013-01-16 14:52:00,34.0,33.0,-100.00,North,0,1.0,5.0,96,-99.99,,,-99.99,,2013-01-16 19:52:00,
2013-01-16 15:03:00,33.0,32.0,-100.00,North,0,3.0,10.0,97,-99.99,,,-99.99,,2013-01-16 20:03:00,
2013-01-16 15:12:00,34.0,33.0,-100.00,North,0,2.0,10.0,96,-99.99,,,-99.99,,2013-01-16 20:12:00,
2013-01-16 15:23:00,34.0,33.0,-100.00,North,0,1.0,9.0,97,-99.99,,,-99.99,,2013-01-16 20:23:00,
2013-01-16 15:33:00,34.0,33.0,-100.00,North,0,1.0,8.0,96,-99.99,,,-99.99,,2013-01-16 20:33:00,
2013-01-16 15:43:00,33.0,33.0,-100.00,North,0,1.0,6.0,97,-99.99,,,-99.99,,2013-01-16 20:43:00,
2013-01-16 15:53:00,33.0,33.0,-100.00,North,0,2.0,9.0,97,-99.99,,,-99.99,,2013-01-16 20:53:00,
2013-01-16 16:03:00,33.0,33.0,-100.00,North,0,2.0,9.0,97,-99.99,,,-99.99,,2013-01-16 21:03:00,
2013-01-16 16:12:00,33.0,33.0,-100.00,North,0,2.0,6.0,97,-99.99,,,-99.99,,2013-01-16 21:12:00,
2013-01-16 17:12:00,33.0,32.0,-100.00,WNW,295,2.0,13.0,96,-99.99,,,-99.99,,2013-01-16 22:12:00,
2013-01-16 17:23:00,33.0,32.0,-100.00,WNW,295,2.0,13.0,96,-99.99,,,-99.99,,2013-01-16 22:23:00,
2013-01-16 17:33:00,33.0,32.0,-100.00,WSW,250,2.0,8.0,97,-99.99,,,-99.99,,2013-01-16 22:33:00,
2013-01-16 17:43:00,33.0,33.0,-100.00,West,275,2.0,7.0,97,-99.99,,,-99.99,,2013-01-16 22:43:00,
2013-01-16 17:52:00,33.0,32.0,-100.00,WNW,290,3.0,7.0,97,-99.99,,,-99.99,,2013-01-16 22:52:00,
2013-01-16 18:03:00,33.0,33.0,-100.00,West,260,2.0,6.0,97,-99.99,,,-99.99,,2013-01-16 23:03:00,
2013-01-16 18:12:00,33.0,32.0,-100.00,West,265,1.0,6.0,97,-99.99,,,-99.99,,2013-01-16 23:12:00,
2013-01-16 18:23:00,33.0,33.0,-100.00,NW,315,1.0,5.0,97,-99.99,,,-99.99,,2013-01-16 23:23:00,
2013-01-16 18:33:00,33.0,33.0,-100.00,West,270,2.0,7.0,97,-99.99,,,-99.99,,2013-01-16 23:33:00,
2013-01-16 18:43:00,33.0,33.0,-100.00,NW,315,2.0,5.0,97,-99.99,,,-99.99,,2013-01-16 23:43:00,
2013-01-16 18:52:00,34.0,33.0,-100.00,West,270,2.0,7.0,97,-99.99,,,-99.99,,2013-01-16 23:52:00,
2013-01-16 19:03:00,33.0,33.0,-100.00,West,270,2.0,7.0,97,-99.99,,,-99.99,,2013-01-17 00:03:00,
2013-01-16 19:12:00,33.0,33.0,-100.00,WNW,285,2.0,6.0,97,-99.99,,,-99.99,,2013-01-17 00:12:00,
2013-01-16 19:30:00,34.0,33.0,-100.00,West,275,3.0,5.0,97,-99.99,,,-99.99,,2013-01-17 00:30:00,
2013-01-16 19:42:00,33.0,33.0,-100.00,North,0,1.0,5.0,97,-99.99,,,-99.99,,2013-01-17 00:42:00,
2013-01-16 19:52:00,33.0,33.0,-100.00,West,270,5.0,7.0,97,-99.99,,,-99.99,,2013-01-17 00:52:00,
2013-01-16 20:02:00,33.0,33.0,-100.00,SW,215,2.0,8.0,97,-99.99,,,-99.99,,2013-01-17 01:02:00,
2013-01-16 20:12:00,34.0,33.0,-100.00,West,275,3.0,5.0,97,-99.99,,,-99.99,,2013-01-17 01:12:00,
2013-01-16 20:22:00,34.0,33.0,-100.00,West,275,3.0,5.0,97,-99.99,,,-99.99,,2013-01-17 01:22:00,
2013-01-16 20:30:00,33.0,32.0,-100.00,WNW,285,1.0,5.0,97,-99.99,,,-99.99,,2013-01-17 01:30:00,
2013-01-16 21:12:00,33.0,32.0,-100.00,WNW,285,1.0,5.0,97,-99.99,,,-99.99,,2013-01-17 02:12:00,
2013-01-16 21:22:00,33.0,32.0,-100.00,WNW,285,1.0,5.0,97,-99.99,,,-99.99,,2013-01-17 02:22:00,